Regional Weather Roundup
Issued by NWS Portland, ME

Home | Current Version | Previous Version | Text Only | Print | Product List | Glossary On
Versions: 1 2 3 4 5 6 7 8 9 10 11 12 13 14 15 16 17 18 19 20 21 22 23 24 25 26 27 28 29 30 31 32 33 34 35 36 37 38 39 40 41 42 43 44 45 46 47 48 49 50
000
ASUS41 KGYX 191410
RWRGYX
WEATHER ROUNDUP FOR MAINE AND NEW HAMPSHIRE
NATIONAL WEATHER SERVICE GRAY ME
1000 AM EDT SAT APR 19 2014

MEZ002-005-006-010-012-015-018-020-021-024-026-027-029-191500-
MAINE

CITY           SKY/WX    TMP DP  RH WIND       PRES   REMARKS
PORTLAND       SUNNY     49  34  56 NW10      30.16S
SANFORD        SUNNY     55   1  11 NW8G21    30.15S
BAR HARBOR     CLOUDY    39  37  93 SW5       30.12F
WISCASSET      MOSUNNY   48  32  53 VRB5      30.15F
ROCKLAND       MOSUNNY   43  34  70 W7        30.13F
FRYEBURG       MOSUNNY   50  33  52 N9        30.16R
LEWISTONAUBURN SUNNY     48  32  53 NW13G18   30.15R
AUGUSTA        MOSUNNY   46  32  58 W14G21    30.14R
WATERVILLE     MOSUNNY   43  32  65 N8        30.10R
BANGOR         PTSUNNY   39  31  72 W9        30.13S
GREENVILLE       N/A     34  32  92 VRB5      30.07R
MILLINOCKET    CLOUDY    40  30  67 W5        30.10R
HOULTON        CLOUDY    40  29  64 SW6       30.05S
PRESQUE ISLE   CLOUDY    39  27  60 W5        30.07R
FRENCHVILLE    CLOUDY    33  32  96 W6        30.03R
CARIBOU        CLOUDY    37  29  72 SW6       30.05R
$$

NHZ002-005-008-009-011-012-014-191500-
NEW HAMPSHIRE

CITY           SKY/WX    TMP DP  RH WIND       PRES   REMARKS
PORTSMOUTH     MOSUNNY   53  32  45 W10G20    30.16S
ROCHESTER      SUNNY     53  32  44 NW20      30.15S
NASHUA         SUNNY     54  32  43 NW14G26   30.19S
MANCHESTER     MOSUNNY   53  31  42 NW17G24   30.18R
CONCORD        MOSUNNY   51  32  48 NW10      30.19R
LACONIA        PTSUNNY   48  32  53 W14       30.18S
PLYMOUTH         N/A     44  34  68 W7        30.20S
BERLIN         CLOUDY    41  32  70 NW10G20   30.19R
WHITEFIELD     CLOUDY    41  32  70 NW10      30.22R
JAFFREY        SUNNY     48  32  53 NW8       30.20R
LEBANON        PTSUNNY   48  31  51 N7        30.21R
MT WASHINGTON  DRFTSNOW  19  19 100 NW46G58     N/A  VSB 0   WCI  -3
$$

VTZ005-007-008-191500-
VERMONT

CITY           SKY/WX    TMP DP  RH WIND       PRES   REMARKS
ST JOHNSBURY     N/A     42  34  73 MISG      30.23R
MONTPELIER     LGT RAIN  41  38  89 NW13G21   30.27R
BURLINGTON     LGT RAIN  42  38  85 NW10      30.30R
$$

MAZ007-012-024-CTZ003-RIZ002-NYZ038-NYZ072-191500-
SOUTHERN NEW ENGLAND AND NY

CITY           SKY/WX    TMP DP  RH WIND       PRES   REMARKS
BOSTON         SUNNY     54  33  45 NW16G23   30.19R
WORCESTER      SUNNY     48  32  53 NW16G22   30.20R
NANTUCKET      SUNNY     49  38  65 W16       30.19S
PROVIDENCE     MOSUNNY   54  31  41 NW12G22   30.21R
HARTFORD       MOSUNNY   54  29  38 N10G18    30.25R
ALBANY         MOSUNNY   50  33  52 NW10      30.29R
NEW YORK CITY  PTSUNNY   54  33  45 N7        30.26S
$$

ANZ081-ANZ082-ANZ150-NHZ014-MEZ023>029-191500-
COASTAL MARINE OBSERVATIONS

STATION/POSITION TIME  TEMP    WIND        PRES    WAVE
                       AIR SEA DIR/SP/G            HT/PER
                 (UTC) (F)     (DEG/KT/KT) (MB)    (FT/S)
MOUNT DESERT ROC 1400   39                 1020.1R
MATINICUS ROCK   1400   38     270/ 16/ 18 1020.2F
PORTLAND WX BUOY 1400   39 41   30/  4/  6 1021.3S   5/ 9
WELLS            1400   51 38  330/  7/ 14 1020.2R
ISLE OF SHOALS   1400   45     300/ 15/ 16 1020.7F
JEFFREYS LEDGE   1400      41                N/A     4/ 9
CASHES LEDGE BUO 1400   41 41  270/ 10/ 12 1021.0S   5/10
$$

.............KEY..............
   WCI - WIND CHILL
   TC  - TEMPERATURE IN CELSIUS
   VSB - VISIBILITY IN MILES
   HX  - HEAT INDEX
   FAIR- INDICATES FEW OR NO CLOUDS BELOW 12,000 FT, WITH NO
         SIGNIFICANT WEATHER AND/OR OBSTRUCTIONS TO VISIBILITY.





USA.gov is the U.S. government's official web portal to all federal, state and local government web resources and services.